Regional Weather Roundup
Issued by NWS

Home | Current Version | Previous Version | Graphics & Text | Print | Product List | Glossary On
Versions: 1 2 3 4 5 6 7 8 9 10 11 12 13 14 15 16 17 18 19 20 21 22 23 24 25 26 27 28 29 30 31 32 33 34 35 36 37 38 39 40 41 42 43 44 45 46 47 48 49 50
872
ASUS43 KDTX 202310
RWRMI
MICHIGAN HOURLY REGIONAL WEATHER ROUNDUP
NATIONAL WEATHER SERVICE DETROIT/PONTIAC MI
600 PM EST MON FEB 20 2017

NOTE: "FAIR" INDICATES FEW OR NO CLOUDS BELOW 12,000 FEET WITH NO
SIGNIFICANT WEATHER AND/OR OBSTRUCTION TO VISIBILITY.

MIZ047>049-052>055-059>063-066>070-074>076-081>083-210000-
SOUTHEAST LOWER MICHIGAN

CITY           SKY/WX    TMP DP  RH WIND       PRES   REMARKS
ADRIAN         PTCLDY    44  33  65 SE10      30.18F
ALMA           PTCLDY    52  33  47 E12G17    30.15S
ANN ARBOR      PTCLDY    48  34  58 E9        30.19F
BAD AXE        CLOUDY    38  33  80 SE6       30.23F WCI  34
CARO           CLOUDY    48  35  59 SE7       30.18F
DETROIT CITY   PTCLDY    42  33  70 E10       30.23F
DETROIT        CLOUDY    47  33  58 E8        30.22F
FLINT          CLOUDY    48  31  51 SE12      30.19F
GROSSE ILE     MOCLDY    43  32  64 E10G16    30.21S
HILLSDALE      CLOUDY    46  34  61 E12       30.13F
HOWELL         PTCLDY    49  34  54 SE13      30.17S

CITY           SKY/WX    TMP DP  RH WIND       PRES   REMARKS
JACKSON        CLOUDY    50  32  50 E13       30.15F
LAMBERTVILLE   CLOUDY    40  32  73 E9        30.21S WCI  34
LANSING        CLOUDY    53  33  46 SE14      30.15S
LAPEER         FAIR      46  33  61 SE8G17    30.20F
MASON          CLOUDY    51  35  54 SE9       30.14F
MONROE         CLOUDY    41  32  69 E15G21    30.21S
MT. CLEMENS    PTCLDY    40  34  80 E8        30.22F WCI  34
PONTIAC        CLOUDY    45  32  60 SE15      30.19F
PORT HOPE        N/A     34  32  92 SE8       30.24F WCI  27
PORT HURON     CLOUDY    43  34  70 SE3       30.26F
TRI CITIES     CLOUDY    42  37  82 NE8       30.17F
MIDLAND        FAIR      42  32  69 E6        30.17F
TROY           CLOUDY    45  31  58 E9        30.24F
SAGINAW HB     CLOUDY    50  32  50 SE8       30.17F
$$
MIZ043>046-050>051-056>058-064>065-071>073-077>080-210000-
SOUTHWEST LOWER MICHIGAN

CITY           SKY/WX    TMP DP  RH WIND       PRES   REMARKS
BATTLE CREEK   CLOUDY    55  36  48 SE9       30.11F
BENTON HARBOR  CLOUDY    62  41  46 SE15G23   30.04S
BIG RAPIDS     CLOUDY    49  35  57 SE9       30.09F
COLDWATER      CLOUDY    53  36  51 E8        30.12F
FREMONT        FAIR      55  34  45 SE10G17   30.05F
HOLLAND        CLOUDY    59  37  44 SE12      30.06S
GRAND RAPIDS   CLOUDY    55  35  47 SE13      30.08F
IONIA          FAIR      52  35  51 SE12      30.11F
KALAMAZOO      CLOUDY    57  36  45 SE9       30.10F
LUDINGTON      CLOUDY    54  37  52 SE10G20   30.02S
MARSHALL       CLOUDY    53  34  48 E12       30.12F
MOUNT PLEASANT PTCLDY    47  35  62 E8        30.14F
MUSKEGON       CLOUDY    58  37  45 E10       30.04F
SOUTH HAVEN    CLOUDY    61  40  45 SE12      30.05S
$$
MIZ016>042-210000-
NORTHERN LOWER MICHIGAN

CITY           SKY/WX    TMP DP  RH WIND       PRES   REMARKS
ALPENA         CLOUDY    34  29  82 SE10      30.24S WCI  26
BEAVER ISLAND  MOCLDY    37  32  81 E14       30.07F WCI  29
BELLAIRE       PTCLDY    47  32  55 SE9G16    30.09F
CADILLAC       CLOUDY    44  33  64 SE10      30.08F
CHARLEVOIX     CLOUDY    47  31  53 SE14      30.10F
FRANKFORT      CLOUDY    52  34  50 SE14G20   30.01F
GAYLORD        CLOUDY    44  28  53 SE12G23   30.12F
GRAYLING       CLOUDY    42  32  69 E12       30.15F
HARBOR SPRINGS CLOUDY    44  31  59 E12       30.11F
HOUGHTON LAKE  CLOUDY    43  32  65 SE10      30.15F
MANISTEE       CLOUDY    52  34  50 SE14      30.01F
OSCODA         CLOUDY    37  30  77 E8        30.23F WCI  30
PELLSTON       MOCLDY    41  29  62 E13       30.13F
ROGERS CITY    MOCLDY    35  27  72 SE9G16    30.23F WCI  28
TRAVERSE CITY  CLOUDY    50  31  48 SE8       30.05F
$$
MIZ007>008-015-210000-
EASTERN UPPER MICHIGAN

CITY           SKY/WX    TMP DP  RH WIND       PRES   REMARKS
KINROSS        CLOUDY    34  25  69 SE16G26   30.16F WCI  24
MACKINAC ISLAN PTCLDY    33  29  85 E22G30    30.15F WCI  21
NEWBERRY       PTCLDY    34  29  83 SE15      30.08F WCI  24
S. S. MARIE    PTCLDY    34  22  61 SE15G22   30.19S WCI  24
MUNISING         N/A     42  30  62 S14G24    29.95F
$$
MIZ004>006-011>014-085-210000-
CENTRAL UPPER MICHIGAN

CITY           SKY/WX    TMP DP  RH WIND       PRES   REMARKS
MANISTIQUE     CLOUDY    36  32  87 E15G23    30.03F WCI  26
ESCANABA       CLOUDY    41  33  73 E15       29.98F
MENOMINEE      CLOUDY    45  33  63 SE7       29.95F
SAWYER-GWINN   CLEAR     41  30  65 S18G24    29.93F
$$
MIZ001>003-009>011-084-210000-
WESTERN UPPER MICHIGAN

CITY           SKY/WX    TMP DP  RH WIND       PRES   REMARKS
IRON MOUNTAIN  CLOUDY    43  30  60 SE12      29.90F
HOUGHTON       CLOUDY    40  30  67 E10       29.83S WCI  33
IRONWOOD       LGT RAIN  48  45  89 SE22G28   29.67F FOG
$$

ABBREVIATIONS USED IN REMARKS
   TC - TEMPERATURE IN CELSIUS
  WCI - WIND CHILL INDEX
   HX - HEAT INDEX
  VSB - VISIBILITY





USA.gov is the U.S. government's official web portal to all federal, state and local government web resources and services.